Location: Gull Harbor
(47.1000°N, 122.9000°W)
Time: 18:57:57
(UTC-07:00)

Envisat - Visible Passes

Search period start: 24 September 2022 00:00
Search period end: 04 October 2022 00:00
Orbit: 764 x 765 km, 98.2° (Epoch: 24 September)

Date Brightness Start Highest point End Pass type
(mag) Time Alt. Az. Time Alt. Az. Time Alt. Az.
24 Sep 5.7 04:18:33 10° NE 04:21:38 16° E 04:24:42 10° SE visible
24 Sep 2.9 05:56:07 10° N 06:01:12 73° WNW 06:06:15 10° SSW visible
25 Sep 3.7 05:19:12 10° NNE 05:24:12 55° E 05:29:11 10° S visible
26 Sep 5.0 04:42:45 10° NE 04:47:01 26° E 04:51:15 10° SSE visible
26 Sep 3.4 06:21:23 10° N 06:26:12 44° WNW 06:31:00 10° SW visible
27 Sep 5.9 04:07:29 10° ENE 04:09:38 12° E 04:11:45 10° ESE visible
27 Sep 3.0 05:44:14 10° NNE 05:49:21 90° ESE 05:54:26 10° SSW visible
28 Sep 4.1 05:07:27 10° NNE 05:12:19 43° E 05:17:07 10° S visible
29 Sep 5.4 04:31:13 10° NE 04:35:03 21° E 04:38:52 10° SE visible
29 Sep 3.1 06:09:26 10° N 06:14:24 55° WNW 06:19:21 10° SSW visible
30 Sep 3.2 05:32:24 10° NNE 05:37:30 72° ESE 05:42:34 10° S visible
01 Oct 4.6 04:55:45 10° NNE 05:00:23 34° E 05:04:59 10° SSE visible
01 Oct 3.7 06:34:48 10° N 06:39:22 34° WNW 06:43:55 10° SW visible
02 Oct 5.6 04:19:49 10° NE 04:23:04 17° E 04:26:18 10° SE visible
02 Oct 2.9 05:57:31 10° N 06:02:36 70° WNW 06:07:37 10° SSW visible
03 Oct 3.6 05:20:35 10° NNE 05:25:37 57° E 05:30:36 10° S visible
